Regional Weather Roundup
Issued by NWS Newport/Morehead, NC

Current Version | Previous Version | Text Only | Print | Product List | Glossary On
Versions: 1 2 3 4 5 6 7 8 9 10 11 12 13 14 15 16 17 18 19 20 21 22 23 24 25 26 27 28 29 30 31 32 33 34 35 36 37 38 39 40 41 42 43 44 45 46 47 48 49 50
000
ASUS42 KMHX 301412
RWRMHX
WEATHER ROUNDUP FOR EASTERN NORTH CAROLINA
NATIONAL WEATHER SERVICE NEWPORT/MOREHEAD CITY NC
1000 AM EDT MON MAR 30 2015

NOTE: "FAIR" INDICATES FEW OR NO CLOUDS BELOW 12,000 FEET
WITH NO SIGNIFICANT WEATHER AND/OR OBSTRUCTIONS TO VISIBILITY

NCZ015>017-031-032-045>047-102-103-301500-
NORTH COAST

CITY           SKY/WX    TMP DP  RH WIND       PRES   REMARKS
EDENTON        CLOUDY    48  34  59 SW15      30.10S
ELIZABETH CITY CLOUDY    49  33  54 SW21G31   30.08F
KITTY HAWK     CLOUDY    47  36  66 SW9       30.09F
MANTEO         CLOUDY    47  36  65 SW14      30.11S

$$

NCZ045>047-081-094-103-104-301500-
CENTRAL COAST

CITY           SKY/WX    TMP DP  RH WIND       PRES   REMARKS
FRISCO         CLOUDY    55  35  47 SW23G30   30.14F
SWANQUARTER      N/A     52 N/A N/A SW12      30.09S

$$

NCZ095-097-098-100-101-301500-
SOUTHERN COAST

CITY           SKY/WX    TMP DP  RH WIND       PRES   REMARKS
BEAUFORT       PTSUNNY   56  44  64 MISG      30.15F
CEDAR ISLAND     N/A     54 N/A N/A S10G17    30.18S
JACKSONVILLE   CLOUDY    54  38  54 SW14G20   30.16S
PINEY ISLAND   CLOUDY   N/A N/A N/A SW16G26   30.13F
WILMINGTON     MOSUNNY   57  42  57 SW10      30.16S


$$

NCZ011>013-027>030-043-044-078>080-089-090>093-098-301500-
COASTAL PLAIN

CITY           SKY/WX    TMP DP  RH WIND       PRES   REMARKS
AHOSKIE        CLOUDY    46  32  57 SW7       30.07F
CLINTON        CLOUDY    48  37  64 SW5       30.13F
ELIZABETHTOWN  CLOUDY    50  36  58 SW7       30.16S
GOLDSBORO      CLOUDY    49  41  75 SW12      30.10F
GREENVILLE     CLOUDY    48  34  57 SW10G17   30.12F
HAVELOCK       PTSUNNY   57  39  51 SW17      30.16S
KENANSVILLE    CLOUDY    49  34  56 SW8       30.14F
KINSTON        CLOUDY    50  36  57 SW10G18   30.13F
NEW BERN       PTSUNNY   51  36  56 SW8       30.15F
RICHLANDS      CLOUDY    50  36  57 SW12G20   30.15F
ROCKY MOUNT    CLOUDY    48  33  56 SW13G23   30.11R
WASHINGTON     CLOUDY    48  33  57 SW15G23   30.12F
WHITEVILLE     CLOUDY    52  37  56 SW8G18    30.16F

$$

AMZ130-135-150-152-154-156-158-170-250-252-270-ANZ085-086-088-633-658-670-301500-
MARINE OBSERVATIONS

STATION/POSITION TIME  TEMP    WIND        PRES    WAVE   SWELL
                       AIR SEA DIR/SP/G            HT/PER HT/PER
                 (UTC) (F)     (DEG/KT/KT) (MB)    (FT/S) (FT/S)
CHESAPEAKE LIGHT 1300   44     220/ 30/ 33 1016.7
64 E VA BEACH    1350   49 49  220/ 25/ 33 1017.5    6/ 6   3/10
DUCK             1300   47 42  220/ 18/ 22 1018.4
2 E DUCK         1311      42                N/A     3/10   2/11
10 NE DUCK       NOT AVBL
OREGON INLET     1300   49 44  210/ 17/ 19 1019.9
HATTERAS CG      1300   55 51  230/ 13/ 21 1021.2
CAPE LOOKOUT     1400   57     230/ 12/ 16 1020.8
BEAUFORT LAB     1300   54 52  220/  7/ 13 1020.2
27 SE WRIGHTSVLE 1300   57 64  250/ 21/ 27 1023.1
5 SE WRIGHTSVLE  1300   56 55  230/ 19/ 23 1021.0
225 S CAPE HAT   1350   56 68  240/  6/ 10 1026.0    5/10   5/10
41 SE CHARLESTON 1350   62 68  220/ 17/ 21 1022.5    4/ 4   2/ 9

$$



USA.gov is the U.S. government's official web portal to all federal, state and local government web resources and services.